When you browse on this site, cookies collect data to enhance your experience and personalize the content and advertising you see.
Visit our Privacy Policy to learn more. By continuing to use the site, you agree to this use of cookies and data.
  • In Switzerland
  • List of Countries
  • For 7 days
  • Water Temperature
  • Weather Map
  • Weather Widgets
  • user-avatar
    Login

    Hourly Weather Tomakhivka

    Today, 25 August, Sunday

    Time Temperature Precipitation Wind Pressure Humidity
    00:00 +19°C° 0 mm 3 mps 755 mmHg 62%
    01:00 +18°C° 0 mm 3 mps 755 mmHg 61%
    02:00 +17°C° 0 mm 3 mps 755 mmHg 61%
    03:00 +17°C° 0 mm 3 mps 755 mmHg 62%
    04:00 +16°C° 0 mm 3 mps 755 mmHg 63%
    05:00 +16°C° 0 mm 3 mps 755 mmHg 64%
    06:00 +18°C° 0 mm 3 mps 755 mmHg 59%
    07:00 +20°C° 0 mm 3 mps 755 mmHg 54%
    08:00 +22°C° 0 mm 4 mps 756 mmHg 50%
    09:00 +23°C° 0 mm 4 mps 756 mmHg 45%
    10:00 +26°C° 0 mm 4 mps 755 mmHg 40%
    11:00 +27°C° 0 mm 4 mps 755 mmHg 35%
    12:00 +27°C° 0 mm 4 mps 755 mmHg 36%
    13:00 +28°C° 0 mm 5 mps 755 mmHg 36%
    14:00 +28°C° 0 mm 5 mps 755 mmHg 36%
    15:00 +28°C° 0 mm 4 mps 755 mmHg 40%
    16:00 +27°C° 0 mm 4 mps 755 mmHg 44%
    17:00 +26°C° 0 mm 4 mps 755 mmHg 48%
    18:00 +25°C° 0 mm 4 mps 755 mmHg 55%
    19:00 +22°C° 0 mm 4 mps 756 mmHg 62%
    20:00 +20°C° 0 mm 4 mps 756 mmHg 68%
    21:00 +20°C° 0 mm 4 mps 756 mmHg 70%
    22:00 +19°C° 0 mm 4 mps 756 mmHg 71%
    23:00 +19°C° 0 mm 4 mps 756 mmHg 73%

    Tomorrow, 26 August, Monday

    Time Temperature Precipitation Wind Pressure Humidity
    00:00 +18°C° 0 mm 4 mps 757 mmHg 73%
    01:00 +17°C° 0 mm 4 mps 757 mmHg 73%
    02:00 +17°C° 0 mm 3 mps 757 mmHg 73%
    03:00 +16°C° 0 mm 3 mps 757 mmHg 75%
    04:00 +16°C° 0 mm 3 mps 757 mmHg 76%
    05:00 +14°C° 0 mm 3 mps 757 mmHg 78%
    06:00 +17°C° 0 mm 4 mps 757 mmHg 72%
    07:00 +19°C° 0 mm 4 mps 757 mmHg 66%
    08:00 +20°C° 0 mm 4 mps 758 mmHg 60%
    09:00 +22°C° 0 mm 4 mps 758 mmHg 53%
    10:00 +23°C° 0 mm 4 mps 757 mmHg 47%
    11:00 +26°C° 0 mm 4 mps 757 mmHg 41%
    12:00 +26°C° 0 mm 4 mps 757 mmHg 39%
    13:00 +27°C° 0 mm 4 mps 757 mmHg 37%
    14:00 +27°C° 0 mm 4 mps 757 mmHg 35%
    15:00 +26°C° 0 mm 4 mps 756 mmHg 38%
    16:00 +26°C° 0 mm 4 mps 756 mmHg 41%
    17:00 +25°C° 0 mm 4 mps 756 mmHg 43%
    18:00 +22°C° 0 mm 3 mps 756 mmHg 47%
    19:00 +20°C° 0 mm 3 mps 756 mmHg 52%
    20:00 +18°C° 0 mm 3 mps 756 mmHg 56%
    21:00 +18°C° 0 mm 3 mps 756 mmHg 58%
    22:00 +17°C° 0 mm 2 mps 756 mmHg 61%
    23:00 +16°C° 0 mm 2 mps 756 mmHg 63%

    Day after tomorrow, 27 August, Tuesday

    Time Temperature Precipitation Wind Pressure Humidity
    00:00 +16°C° 0 mm 2 mps 756 mmHg 64%
    01:00 +15°C° 0 mm 2 mps 755 mmHg 66%
    02:00 +15°C° 0 mm 2 mps 755 mmHg 68%
    03:00 +15°C° 0 mm 2 mps 755 mmHg 70%
    04:00 +14°C° 0 mm 2 mps 755 mmHg 71%
    05:00 +14°C° 0 mm 2 mps 755 mmHg 73%
    06:00 +16°C° 0 mm 2 mps 755 mmHg 66%
    07:00 +18°C° 0 mm 2 mps 755 mmHg 59%
    08:00 +20°C° 0 mm 2 mps 755 mmHg 52%
    09:00 +23°C° 0 mm 2 mps 755 mmHg 47%
    10:00 +24°C° 0 mm 2 mps 754 mmHg 42%
    11:00 +26°C° 0 mm 3 mps 754 mmHg 37%
    12:00 +26°C° 0 mm 3 mps 754 mmHg 36%
    13:00 +26°C° 0 mm 3 mps 753 mmHg 35%
    14:00 +27°C° 0 mm 3 mps 753 mmHg 35%
    15:00 +26°C° 0 mm 3 mps 753 mmHg 38%
    16:00 +26°C° 0 mm 3 mps 752 mmHg 42%
    17:00 +25°C° 0 mm 3 mps 752 mmHg 45%
    18:00 +22°C° 0 mm 3 mps 752 mmHg 53%
    19:00 +21°C° 0 mm 3 mps 752 mmHg 60%
    20:00 +19°C° 0 mm 3 mps 752 mmHg 67%
    21:00 +18°C° 0 mm 3 mps 752 mmHg 71%
    22:00 +18°C° 0 mm 3 mps 752 mmHg 75%
    23:00 +18°C° 0 mm 3 mps 752 mmHg 79%

    28 August, Wednesday

    Time Temperature Precipitation Wind Pressure Humidity
    00:00 +17°C° 0 mm 3 mps 752 mmHg 82%
    01:00 +17°C° 0 mm 3 mps 752 mmHg 86%
    02:00 +16°C° 0 mm 3 mps 752 mmHg 89%
    03:00 +14°C° 0 mm 3 mps 752 mmHg 88%
    04:00 +14°C° 0 mm 3 mps 752 mmHg 88%
    05:00 +13°C° 0 mm 3 mps 753 mmHg 87%
    06:00 +16°C° 0 mm 3 mps 753 mmHg 78%
    07:00 +17°C° 0 mm 4 mps 753 mmHg 69%
    08:00 +19°C° 0 mm 4 mps 753 mmHg 60%
    09:00 +20°C° 0 mm 4 mps 753 mmHg 55%
    10:00 +21°C° 0 mm 5 mps 753 mmHg 50%
    11:00 +23°C° 0 mm 5 mps 753 mmHg 45%
    12:00 +23°C° 0 mm 5 mps 753 mmHg 43%
    13:00 +23°C° 0 mm 5 mps 753 mmHg 41%
    14:00 +23°C° 0 mm 5 mps 753 mmHg 39%
    15:00 +22°C° 0 mm 5 mps 753 mmHg 39%
    16:00 +21°C° 0 mm 5 mps 753 mmHg 39%
    17:00 +20°C° 0 mm 5 mps 753 mmHg 40%
    18:00 +18°C° 0 mm 4 mps 753 mmHg 44%
    19:00 +15°C° 0 mm 4 mps 754 mmHg 48%
    20:00 +13°C° 0 mm 3 mps 754 mmHg 52%
    21:00 +12°C° 0 mm 3 mps 754 mmHg 55%
    22:00 +12°C° 0 mm 3 mps 755 mmHg 58%
    23:00 +11°C° 0 mm 3 mps 755 mmHg 61%

    29 August, Thursday

    Time Temperature Precipitation Wind Pressure Humidity
    00:00 +10°C° 0 mm 3 mps 755 mmHg 64%
    01:00 +9°C° 0 mm 3 mps 755 mmHg 67%
    02:00 +9°C° 0 mm 3 mps 755 mmHg 70%
    03:00 +8°C° 0 mm 3 mps 755 mmHg 72%
    04:00 +8°C° 0 mm 2 mps 755 mmHg 75%
    05:00 +7°C° 0 mm 2 mps 756 mmHg 77%
    06:00 +9°C° 0 mm 3 mps 756 mmHg 70%
    07:00 +11°C° 0 mm 3 mps 756 mmHg 62%
    08:00 +13°C° 0 mm 4 mps 756 mmHg 54%
    09:00 +14°C° 0 mm 4 mps 756 mmHg 50%
    10:00 +15°C° 0 mm 4 mps 756 mmHg 46%
    11:00 +18°C° 0 mm 4 mps 756 mmHg 43%
    12:00 +18°C° 0 mm 4 mps 755 mmHg 41%
    13:00 +19°C° 0 mm 4 mps 755 mmHg 39%
    14:00 +20°C° 0 mm 4 mps 755 mmHg 37%
    15:00 +19°C° 0 mm 4 mps 755 mmHg 40%
    16:00 +19°C° 0 mm 5 mps 755 mmHg 42%
    17:00 +17°C° 0 mm 5 mps 755 mmHg 44%
    18:00 +15°C° 0 mm 4 mps 755 mmHg 51%
    19:00 +13°C° 0 mm 4 mps 755 mmHg 57%
    20:00 +11°C° 0 mm 3 mps 755 mmHg 63%
    21:00 +11°C° 0 mm 3 mps 756 mmHg 64%
    22:00 +10°C° 0 mm 3 mps 756 mmHg 64%
    23:00 +9°C° 0 mm 3 mps 756 mmHg 65%

    30 August, Friday

    Time Temperature Precipitation Wind Pressure Humidity
    00:00 +9°C° 0 mm 3 mps 756 mmHg 67%
    01:00 +8°C° 0 mm 3 mps 756 mmHg 69%
    02:00 +7°C° 0 mm 3 mps 756 mmHg 71%
    03:00 +7°C° 0 mm 3 mps 756 mmHg 73%
    04:00 +7°C° 0 mm 3 mps 756 mmHg 75%
    05:00 +5°C° 0 mm 3 mps 757 mmHg 77%
    06:00 +9°C° 0 mm 3 mps 757 mmHg 68%
    07:00 +11°C° 0 mm 3 mps 757 mmHg 60%
    08:00 +13°C° 0 mm 4 mps 757 mmHg 51%
    09:00 +15°C° 0 mm 4 mps 757 mmHg 46%
    10:00 +17°C° 0 mm 4 mps 757 mmHg 40%
    11:00 +18°C° 0 mm 4 mps 757 mmHg 35%
    12:00 +19°C° 0 mm 4 mps 756 mmHg 33%
    13:00 +20°C° 0 mm 4 mps 756 mmHg 32%
    14:00 +20°C° 0 mm 4 mps 755 mmHg 30%
    15:00 +20°C° 0 mm 4 mps 755 mmHg 33%
    16:00 +19°C° 0 mm 3 mps 755 mmHg 35%
    17:00 +19°C° 0 mm 3 mps 755 mmHg 38%
    18:00 +17°C° 0 mm 3 mps 755 mmHg 43%
    19:00 +14°C° 0 mm 3 mps 755 mmHg 48%
    20:00 +13°C° 0 mm 2 mps 755 mmHg 53%
    21:00 +12°C° 0 mm 2 mps 755 mmHg 55%
    22:00 +12°C° 0 mm 2 mps 755 mmHg 57%
    23:00 +10°C° 0 mm 2 mps 755 mmHg 59%
    Show more